Location: Arpaise
(41.0333°N, 14.7333°E)
Time: 01:37:13
(UTC+00:00)

ATLAS CENTAUR R/B - Pass Details

Date: 05 July 2020
Orbit: 475 x 672 km, 64.7° (Epoch: 13 July)

Event Time Altitude Azimuth Distance (km) Brightness Sun altitude
Rises 20:15:10 0° 338° (NNW) 2,566 6.2 -15.0°
Reaches altitude 10° 20:17:43 10° 355° (N) 1,664 4.6 -15.3°
Maximum altitude 20:20:37 21° 47° (NE) 1,113 2.9 -15.6°
Enters shadow 20:22:16 16° 83° (E) 1,316 2.9 -15.8°
